{"data":{"norad_id":62259,"epoch":"2026-09-19T13:08:43.916928Z","epoch_age_seconds":104186,"freshness":"FRESH","line1":"1 62259U 24234A   26262.54773052 -.00000209  00000+0  00000+0 0  9990","line2":"2 62259   0.0112 239.2200 0004299  79.6732 151.5962  1.00271518  6523","mean_motion":1.00271518,"eccentricity":0.0004299,"inclination_deg":0.0112,"raan_deg":239.22,"arg_perigee_deg":79.6732,"mean_anomaly_deg":151.5962,"bstar":0,"rev_number":652,"period_min":1436.1007280253,"perigee_km":35768.543160701,"apogee_km":35804.796461597,"semimajor_km":42164.806811149,"source":"CELESTRAK","updated_at":"2026-09-20T09:00:35.340197Z"}}